Retour au catalogue

COSMOS 2342

ActifNavigationHEO
NORAD 24800·PAYLOAD·🇷🇺 Russia

Lancé May 14, 1997 depuis Plesetsk Cosmodrome

Loading…

Prochains Passages (prochaines 24 heures)

TLE

FraisSource: Space-Track

Époque: Sep 13, 2026, 02:03 UTC

1 24800U 97022A   26256.08595294  .00000710  00000-0  00000+0 0  9994
2 24800  67.6244 241.7106 6464927 125.1925 313.2977  1.99579133214162

Suivez COSMOS 2342 en temps réel avec AllMySat

Download on the App Store